Retour au catalogue

STARLINK-34338

ActifCommunicationsSSO
NORAD 64151·PAYLOAD·🇺🇸 United States

Lancé May 27, 2025 depuis Vandenberg Space Force Base

Loading…

Prochains Passages (prochaines 24 heures)

TLE

FraisSource: CelesTrak SupGP

Époque: Sep 15, 2026, 03:53 UTC

1 64151C 25112F   26258.16229167 -.00001659  00000+0 -51484-4 0  2581
2 64151  97.2837 305.2393 0000980  89.9874 342.8973 15.33440607    12

Suivez STARLINK-34338 en temps réel avec AllMySat

Download on the App Store